Rome Ciampino, Italy

3:28 PM CET on December 12, 2017 (GMT +0100)
Ciampino

Weather History for LIRA - February, 2013

Change the Weather History Date:

Wednesday, February 20, 2013

  Actual Average Record
Temperature  
Mean Temperature 42 °F -  
Max Temperature 53 °F 58 °F 69 °F (2004)
Min Temperature 32 °F 40 °F 28 °F (2003)
Degree Days  
Heating Degree Days 22    
Moisture  
Dew Point 33 °F    
Average Humidity 71    
Maximum Humidity 93    
Minimum Humidity 44    
Precipitation  
Precipitation 0.00 in 0.10 in - ()
Sea Level Pressure  
Sea Level Pressure 29.93 in    
Wind  
Wind Speed 2 mph ()    
Max Wind Speed 8 mph    
Max Gust Speed -    
Visibility 6.2 miles    
Events      
Averages and records for this station are not official NWS values.
T = Trace of Precipitation, MM = Missing Value Source: Averaged Metar Reports

Daily Weather History Graph

Daily Weather History Graph

Search for Another Location

Airport or City:

Trip Planner

Search our weather history database for the weather conditions in past years. The results will help you decide how hot, cold, wet, or windy it might be!

Date:

Astronomy

Feb. 20, 2013 Rise Set
Actual Time 6:58 AM CET 5:49 PM CET
Civil Twilight 6:30 AM CET 6:17 PM CET
Nautical Twilight 5:57 AM CET 6:49 PM CET
Astronomical Twilight 5:25 AM CET 7:22 PM CET
Moon 12:53 PM CET (2/20) 3:07 AM CET (2/20)
Length of Visible Light 11h 47m
Length of Day
10h 50m
Waxing Gibbous, 74% of the Moon is Illuminated
Feb 20
Waxing Gibbous
Feb 25
Full
Mar 4
Last Quarter
Mar 11
New
Mar 19
First Quarter

Hourly Weather History & Observations

Time (CET) Temp. Windchill Dew Point Humidity Pressure Visibility Wind Dir Wind Speed Gust Speed Precip Events Conditions
12:15 AM 35.6 °F - 30.2 °F 81% 29.95 in - SE 2.3 mph - N/A   Clear
1:15 AM 35.6 °F - 32.0 °F 87% 29.95 in - SE 1.2 mph - N/A   Clear
1:45 AM 37.4 °F - 30.2 °F 75% 29.95 in - SE 2.3 mph - N/A   Clear
2:15 AM 37.4 °F - 30.2 °F 75% 29.95 in - ESE 1.2 mph - N/A   Clear
2:45 AM 35.6 °F - 28.4 °F 75% 29.95 in - SE 1.2 mph - N/A   Clear
3:15 AM 35.6 °F - 28.4 °F 75% 29.95 in - ESE 2.3 mph - N/A   Clear
3:45 AM 37.4 °F - 30.2 °F 75% 29.95 in - East 1.2 mph - N/A   Clear
4:15 AM 35.6 °F - 28.4 °F 75% 29.95 in - ENE 1.2 mph - N/A   Clear
4:45 AM 35.6 °F - 28.4 °F 75% 29.95 in - Calm Calm - N/A   Clear
5:15 AM 33.8 °F - 28.4 °F 81% 29.95 in - Calm Calm - N/A   Clear
5:45 AM 32.0 °F - 28.4 °F 87% 29.95 in - North 1.2 mph - N/A   Clear
6:15 AM 32.0 °F - 28.4 °F 87% 29.95 in 6.2 mi NNE 2.3 mph - N/A   Scattered Clouds
6:45 AM 32.0 °F - 30.2 °F 93% 29.95 in 6.2 mi NE 2.3 mph - N/A   Scattered Clouds
7:15 AM 32.0 °F - 30.2 °F 93% 29.95 in 6.2 mi NNE 1.2 mph - N/A   Scattered Clouds
7:45 AM 32.0 °F - 28.4 °F 87% 29.95 in 6.2 mi NE 2.3 mph - N/A   Partly Cloudy
8:15 AM 33.8 °F - 30.2 °F 87% 29.95 in 6.2 mi North 2.3 mph - N/A   Partly Cloudy
8:45 AM 35.6 °F 32.8 °F 32.0 °F 87% 29.95 in 6.2 mi NNE 3.5 mph - N/A   Partly Cloudy
9:15 AM 37.4 °F 34.9 °F 32.0 °F 81% 29.95 in 6.2 mi NNE 3.5 mph - N/A   Partly Cloudy
9:45 AM 41.0 °F - 33.8 °F 76% 29.95 in 6.2 mi NNE 2.3 mph - N/A   Partly Cloudy
10:15 AM 44.6 °F - 35.6 °F 71% 29.95 in 6.2 mi NNE 2.3 mph - N/A   Partly Cloudy
10:45 AM 48.2 °F - 37.4 °F 66% 29.95 in 6.2 mi NE 4.6 mph - N/A   Partly Cloudy
11:15 AM 51.8 °F - 35.6 °F 54% 29.95 in 6.2 mi ENE 2.3 mph - N/A   Scattered Clouds
11:45 AM 51.8 °F - 33.8 °F 50% 29.95 in 6.2 mi South 2.3 mph - N/A   Scattered Clouds
12:15 PM 53.6 °F - 33.8 °F 47% 29.95 in 6.2 mi SE 3.5 mph - N/A   Scattered Clouds
12:45 PM 51.8 °F - 32.0 °F 47% 29.95 in 6.2 mi West 1.2 mph - N/A   Mostly Cloudy
1:15 PM 50.0 °F - 30.2 °F 47% 29.95 in 6.2 mi SW 2.3 mph - N/A   Mostly Cloudy
2:15 PM 50.0 °F - 30.2 °F 47% 29.92 in 6.2 mi Calm Calm - N/A   Mostly Cloudy
2:45 PM 50.0 °F - 30.2 °F 47% 29.92 in 6.2 mi WSW 4.6 mph - N/A   Mostly Cloudy
3:15 PM 53.6 °F - 32.0 °F 44% 29.89 in 6.2 mi SW 4.6 mph - N/A   Mostly Cloudy
3:45 PM 51.8 °F - 32.0 °F 47% 29.89 in 6.2 mi SW 4.6 mph - N/A   Scattered Clouds
4:15 PM 51.8 °F - 33.8 °F 50% 29.89 in 6.2 mi SSW 5.8 mph - N/A   Scattered Clouds
4:45 PM 50.0 °F - 35.6 °F 58% 29.89 in 6.2 mi SW 4.6 mph - N/A   Scattered Clouds
5:15 PM 48.2 °F - 33.8 °F 58% 29.89 in 6.2 mi SW 4.6 mph - N/A   Scattered Clouds
5:45 PM 48.2 °F - 33.8 °F 58% 29.89 in 6.2 mi SSW 3.5 mph - N/A   Scattered Clouds
6:15 PM 48.2 °F - 35.6 °F 62% 29.89 in 6.2 mi South 1.2 mph - N/A   Scattered Clouds
6:45 PM 44.6 °F 43.1 °F 35.6 °F 71% 29.89 in 6.2 mi SSE 3.5 mph - N/A   Scattered Clouds
7:15 PM 42.8 °F 40.1 °F 35.6 °F 76% 29.89 in 6.2 mi SSE 4.6 mph - N/A   Mostly Cloudy
7:45 PM 44.6 °F 42.2 °F 37.4 °F 76% 29.89 in 6.2 mi SSE 4.6 mph - N/A   Mostly Cloudy
8:15 PM 42.8 °F 39.3 °F 37.4 °F 81% 29.89 in 6.2 mi SSE 5.8 mph - N/A   Scattered Clouds
8:45 PM 42.8 °F 39.3 °F 37.4 °F 81% 29.89 in 6.2 mi SSE 5.8 mph - N/A   Scattered Clouds
9:15 PM 42.8 °F 39.3 °F 35.6 °F 76% 29.89 in 6.2 mi SE 5.8 mph - N/A   Scattered Clouds
9:45 PM 41.0 °F 38.0 °F 35.6 °F 81% 29.89 in 6.2 mi ESE 4.6 mph - N/A   Partly Cloudy
10:15 PM 41.0 °F 39.0 °F 35.6 °F 81% 29.89 in 6.2 mi SE 3.5 mph - N/A   Scattered Clouds
10:45 PM 39.2 °F - 33.8 °F 81% 29.92 in 6.2 mi SE 2.3 mph - N/A   Scattered Clouds
11:15 PM 39.2 °F 35.9 °F 33.8 °F 81% 29.92 in 6.2 mi ESE 4.6 mph - N/A   Scattered Clouds
11:45 PM 39.2 °F 33.6 °F 33.8 °F 81% 29.89 in 6.2 mi ESE 8.1 mph - N/A   Partly Cloudy